Location: Stillwell
(40.4602°N, 82.0928°W)
Time: 21:05:42
(UTC-04:00)

Cosmos 1814 Rocket - Pass Details

Date: 25 May 2018
Orbit: 744 x 788 km, 74.1° (Epoch: 18 June)

Event Time Altitude Azimuth Distance (km) Brightness Sun altitude
Rises 22:14:19 0° 203° (SSW) 3,211 7.0 -14.1°
Reaches altitude 10° 22:16:40 10° 205° (SSW) 2,296 6.3 -14.4°
Maximum altitude 22:21:52 73° 290° (WNW) 809 4.2 -15.1°
Drops below altitude 10° 22:27:12 10° 15° (NNE) 2,340 6.9 -15.8°
Sets 22:29:37 0° 18° (NNE) 3,277 7.7 -16.1°
